Home   Weather   Puerto Vallarta   Past weeks

Flag for Mexico Past Weather in Puerto Vallarta, Jalisco, Mexico — Yesterday and Last 2 Weeks

Now
86 °F

Passing clouds.


Feels Like: 95 °F
Forecast: 75 / 87 °F
Wind: No wind

Location: Puerto Vallarta / Lic

Current Time: Sep 25, 2016 at 12:27:20 PM

Latest Report: Sep 25, 2016 at 11:50 AM


Visibility: 15 mi

Pressure: 29.89 "Hg

Humidity: 70%

Dew Point: 75 °F

Location of Puerto VallartaLocation

Past Weather in Puerto Vallarta — Graph

°F

Puerto Vallarta Temperature Yesterday

Maximum temperature yesterday: 88 °F (at 12:49 PM)
Minimum temperature yesterday: 73 °F (at 6:47 AM)
Average temperature yesterday: 79 °F

High & Low Weather Summary for the Past Weeks

 TemperatureHumidityPressure
High91 °F (Sep 22, 2:49 PM)100% (Sep 11, 2:47 AM)30.02 "Hg (Sep 11, 2:47 AM)
Low73 °F (Sep 22, 1:46 AM)40% (Sep 19, 4:50 PM)29.53 "Hg (Sep 20, 6:50 AM)
Average82 °F85%29.88 "Hg
* Reported Sep 10 10:47 AM — Sep 25 10:52 AM, Puerto Vallarta, Weather by CustomWeather, © 2016

Note: Actual official high and low records may vary slightly from our data, if they occured in-between our weather recording intervals... More about our weather records

Advertising

Puerto Vallarta Weather History for the Previous 24 Hours

Scroll right to see more
 ConditionsComfort  
Time TempWeatherWind HumidityBarometerVisibility
10:52 AM
Sun, Sep 25
82 °FScattered clouds.5 mph79%29.90 "Hg15 mi
9:51 AM79 °FPassing clouds.6 mph84%29.89 "Hg15 mi
8:52 AM75 °FPassing clouds.5 mph94%29.89 "Hg15 mi
7:49 AM73 °FClear.6 mph94%29.89 "Hg15 mi
6:47 AM73 °FClear.3 mph100%29.87 "Hg15 mi
5:47 AM73 °FClear.7 mph100%29.88 "Hg10 mi
4:52 AM73 °FClear.6 mph100%29.88 "Hg10 mi
3:49 AM75 °FPassing clouds.5 mph94%29.90 "Hg10 mi
11:50 PM
Sat, Sep 24
75 °FPassing clouds.6 mph100%29.94 "Hg10 mi
10:48 PM77 °FMostly cloudy.7 mph94%29.93 "Hg10 mi
9:50 PM77 °FPassing clouds.7 mph89%29.90 "Hg10 mi
8:52 PM77 °FPartly cloudy.9 mph89%29.89 "Hg10 mi
7:50 PM77 °FPartly sunny.3 mph94%29.87 "Hg15 mi
5:48 PM79 °FRain. Mostly cloudy.13 mph89%29.86 "Hg10 mi
4:50 PM86 °FBroken clouds.12 mph79%29.86 "Hg12 mi
3:50 PM86 °FBroken clouds.10 mph79%29.87 "Hg15 mi
2:48 PM88 °FBroken clouds.8 mph70%29.90 "Hg15 mi
1:49 PM88 °FBroken clouds.9 mph66%29.92 "Hg15 mi
12:49 PM88 °FPartly sunny.No wind62%29.93 "Hg15 mi
Weather by CustomWeather, © 2016

See weather overviewHow to use our weather pages